Location: *
(46.1866°S, 178.5290°W)
Time: 15:17:53
(UTC+00:00)

Cosmos 1461 - Pass Details

Date: 01 October 2021
Orbit: 520 x 642 km, 65.0° (Epoch: 18 October)

Event Time Altitude Azimuth Distance (km) Brightness Sun altitude
Rises 07:37:40 0° 348° (NNW) 2,706 6.2 -16.7°
Reaches altitude 10° 07:39:56 10° 357° (N) 1,840 5.3 -17.1°
Enters shadow 07:42:10 26° 20° (NNE) 1,129 4.0 -17.4°
Exits shadow 07:50:11 - 137° (SE) 2,880 6.3 -18.7°
